Hourly Data Report for October 07, 2014

All times are specified in Local Standard Time (LST). Add 1 hour to adjust for Daylight Saving Time where and when it is observed.

TORONTO INTL A
ONTARIO

43°40'36.000" N
79°37'50.000" W
173.40 m
6158731
71624
YYZ

Download Data

Hourly Data (October 2014)
Hourly Data Report for October 7, 2014
Temp Definition
°C
Dew Point Temp Definition
°C
Rel Hum Definition
%
Wind Dir Definition
10's deg

Wind Spd Definition
km/h
Visibility Definition
km
Stn Press Definition
kPa
Hmdx Definition


Wind Chill Definition


Weather Definition


TIME
00:00 Legend Double Dagger 12.0 9.8 86 21 13 24.1 98.55     LegendNANA
01:00 Legend Double Dagger 11.2 9.3 88 21 10 24.1 98.55     Mostly Cloudy
02:00 Legend Double Dagger 11.7 9.5 86 20 11 24.1 98.52     LegendNANA
03:00 Legend Double Dagger 11.7 8.6 81 21 16 24.1 98.58     LegendNANA
04:00 Legend Double Dagger 11.3 8.2 81 20 11 24.1 98.62     Mostly Cloudy
05:00 Legend Double Dagger 11.3 8.0 80 19 10 24.1 98.66     LegendNANA
06:00 Legend Double Dagger 10.9 7.8 81 19 7 24.1 98.68     LegendNANA
07:00 Legend Double Dagger 11.5 8.6 82 22 13 24.1 98.75     Rain Showers
08:00 Legend Double Dagger 11.5 9.8 89 20 14 16.1 98.80     LegendNANA
09:00 Legend Double Dagger 14.0 10.6 80 21 17 24.1 98.85     LegendNANA
10:00 Legend Double Dagger 14.4 10.1 75 23 21 24.1 98.87     Mostly Cloudy
11:00 Legend Double Dagger 15.1 9.9 71 24 24 24.1 98.83     LegendNANA
12:00 Legend Double Dagger 16.9 9.2 60 22 19 24.1 98.80     LegendNANA
13:00 Legend Double Dagger 16.8 6.7 51 21 28 24.1 98.75     Mostly Cloudy
14:00 Legend Double Dagger 16.5 6.4 51 21 28 24.1 98.74     LegendNANA
15:00 Legend Double Dagger 16.0 8.8 62 18 17 24.1 98.73     LegendNANA
16:00 Legend Double Dagger 14.2 10.3 77 16 12 24.1 98.68     Rain Showers
17:00 Legend Double Dagger 12.6 9.8 83 17 10 19.3 98.68     Rain Showers
18:00 Legend Double Dagger 11.3 9.6 89 12 12 6.4 98.61     Rain Showers,Fog
19:00 Legend Double Dagger 11.4 10.3 93 11 9 9.7 98.59     Rain Showers,Fog
20:00 Legend Double Dagger 11.4 10.6 95 10 8 9.7 98.56     Rain Showers,Fog
21:00 Legend Double Dagger 11.4 10.6 95 12 9 6.4 98.52     Rain Showers,Fog
22:00 Legend Double Dagger 11.3 10.5 95 14 7 9.7 98.46     Rain Showers,Fog
23:00 Legend Double Dagger 11.4 10.6 95 22 4 9.7 98.43     Fog

Notes on Data Quality.

Legend

  • E = Estimated
  • M = Missing
  • NA = Not Available
  • ‡ = Partner data that is not subject to review by the National Climate Archives
Date modified: